Location: ???????
(55.3754°N, 39.3545°E)
Time: 21:35:33
(UTC+00:00)

MOS 1 - Pass Details

Date: 14 April 2026
Orbit: 877 x 888 km, 98.8° (Epoch: 11 May)

Event Time Altitude Azimuth Distance (km) Brightness Sun altitude
Rises 17:06:07 0° 157° (SSE) 3,464 6.9 -6.1°
Reaches altitude 10° 17:08:29 10° 156° (SSE) 2,530 6.2 -6.4°
Maximum altitude 17:14:07 80° 71° (ENE) 900 4.3 -7.1°
Drops below altitude 10° 17:19:48 10° 345° (NNW) 2,553 7.4 -7.8°
Sets 17:22:13 0° 344° (NNW) 3,497 8.2 -8.1°
